Satellite: METEOR 2-18
Catalog number: 19851
Epoch time:      100334.76555093
Element set:     869 
Inclination:       82.5208 deg
RA of node:        63.4240 deg
Eccentricity:    0.0014128
Arg of perigee:    85.1652 deg
Mean anomaly:     275.1123 deg
Mean motion:   13.85109600 rev/day
Decay rate:    2.4399E-006 rev/day^2
Epoch rev:           59394
Checksum:              321

Satellite: METEOR 2-19
Catalog number: 20670
Epoch time:      100335.50783610
Element set:     412 
Inclination:       82.5447 deg
RA of node:       135.3148 deg
Eccentricity:    0.0017181
Arg of perigee:     9.9112 deg
Mean anomaly:     350.2378 deg
Mean motion:   13.84261689 rev/day
Decay rate:    2.0099E-006 rev/day^2
Epoch rev:           52686
Checksum:              308

Satellite: METEOR 2-20
Catalog number: 20826
Epoch time:      100335.57382544
Element set:     386 
Inclination:       82.5268 deg
RA of node:        69.2111 deg
Eccentricity:    0.0012490
Arg of perigee:   279.1415 deg
Mean anomaly:      80.8332 deg
Mean motion:   13.83806152 rev/day
Decay rate:    1.9500E-006 rev/day^2
Epoch rev:           51389
Checksum:              301

Satellite: METEOR 2-21
Catalog number: 22782
Epoch time:      100356.39902465
Element set:     871 
Inclination:       82.5480 deg
RA of node:       120.7384 deg
Eccentricity:    0.0023052
Arg of perigee:    39.9487 deg
Mean anomaly:     320.3361 deg
Mean motion:   13.83303338 rev/day
Decay rate:    1.6799E-006 rev/day^2
Epoch rev:           36897
Checksum:              331

Satellite: METEOR 3-2
Catalog number: 19336
Epoch time:      100334.84347162
Element set:     886 
Inclination:       82.5398 deg
RA of node:        95.3390 deg
Eccentricity:    0.0017432
Arg of perigee:   127.2979 deg
Mean anomaly:     232.9742 deg
Mean motion:   13.17027082 rev/day
Decay rate:    5.1000E-007 rev/day^2
Epoch rev:           59359
Checksum:              325

Satellite: METEOR 3-3
Catalog number: 20305
Epoch time:      100335.34309882
Element set:     682 
Inclination:       82.5453 deg
RA of node:        79.5627 deg
Eccentricity:    0.0005908
Arg of perigee:   300.7923 deg
Mean anomaly:      59.2417 deg
Mean motion:   13.04463442 rev/day
Decay rate:    4.4000E-007 rev/day^2
Epoch rev:           53034
Checksum:              288

Satellite: METEOR 3-4
Catalog number: 21232
Epoch time:      100334.92221318
Element set:     286 
Inclination:       82.5380 deg
RA of node:       302.6726 deg
Eccentricity:    0.0014329
Arg of perigee:    65.5728 deg
Mean anomaly:     294.6866 deg
Mean motion:   13.16515678 rev/day
Decay rate:    5.1000E-007 rev/day^2
Epoch rev:           46158
Checksum:              305

Satellite: METEOR 3-6
Catalog number: 22969
Epoch time:      100334.95469042
Element set:     696 
Inclination:       82.5640 deg
RA of node:       192.6755 deg
Eccentricity:    0.0015143
Arg of perigee:   129.9934 deg
Mean anomaly:     230.2522 deg
Mean motion:   13.16806964 rev/day
Decay rate:    5.1000E-007 rev/day^2
Epoch rev:           32914
Checksum:              319

Satellite: METEOSAT 4
Catalog number: 19876
Epoch time:      100326.20341360
Element set:     513 
Inclination:        5.2307 deg
RA of node:        66.5398 deg
Eccentricity:    0.0017831
Arg of perigee:   302.6541 deg
Mean anomaly:      56.9944 deg
Mean motion:    0.97109501 rev/day
Decay rate:   -9.5000E-007 rev/day^2
Epoch rev:            2233
Checksum:              278

Satellite: METEOSAT 5
Catalog number: 21140
Epoch time:      100356.90074064
Element set:     922 
Inclination:        3.9126 deg
RA of node:        74.4815 deg
Eccentricity:    0.0001596
Arg of perigee:   246.2227 deg
Mean anomaly:     157.1203 deg
Mean motion:    1.00275795 rev/day
Decay rate:    2.2000E-007 rev/day^2
Epoch rev:            3814
Checksum:              257

Satellite: METEOSAT 6
Catalog number: 22912
Epoch time:      100355.91384839
Element set:     548 
Inclination:        0.8574 deg
RA of node:        77.8736 deg
Eccentricity:    0.0003406
Arg of perigee:   224.4688 deg
Mean anomaly:     107.3731 deg
Mean motion:    1.00270962 rev/day
Decay rate:   -7.5000E-007 rev/day^2
Epoch rev:            2438
Checksum:              301

Satellite: METEOSAT 7
Catalog number: 24932
Epoch time:      100354.50021934
Element set:     739 
Inclination:        0.3198 deg
RA of node:       308.0377 deg
Eccentricity:    0.0001097
Arg of perigee:   343.9137 deg
Mean anomaly:     336.4983 deg
Mean motion:    1.00273601 rev/day
Decay rate:   -5.9999E-008 rev/day^2
Epoch rev:            1208
Checksum:              304

Satellite: UO-11
Catalog number: 14781
Epoch time:      100357.53225147
Element set:     373 
Inclination:       98.0089 deg
RA of node:       317.6212 deg
Eccentricity:    0.0009748
Arg of perigee:   214.8395 deg
Mean anomaly:     145.2179 deg
Mean motion:   14.73179497 rev/day
Decay rate:    2.4709E-005 rev/day^2
Epoch rev:           90002
Checksum:              431

Satellite: UOSAT-12
Catalog number: 25693
Epoch time:      100358.13198476
Element set:     403 
Inclination:       64.5609 deg
RA of node:       254.3038 deg
Eccentricity:    0.0050758
Arg of perigee:   269.7221 deg
Mean anomaly:      89.8043 deg
Mean motion:   14.73545190 rev/day
Decay rate:   -9.9999E-009 rev/day^2
Epoch rev:            9014
Checksum:              348

Satellite: RS-10/11
Catalog number: 18129
Epoch time:      100355.55560787
Element set:     912 
Inclination:       82.9253 deg
RA of node:        10.7535 deg
Eccentricity:    0.0010175
Arg of perigee:   263.0521 deg
Mean anomaly:      96.9477 deg
Mean motion:   13.72537204 rev/day
Decay rate:    7.6999E-007 rev/day^2
Epoch rev:           67613
Checksum:              330

Satellite: FENGYUN 1C
Catalog number: 25730
Epoch time:      100356.17178905
Element set:     154 
Inclination:       98.7179 deg
RA of node:        32.0527 deg
Eccentricity:    0.0015123
Arg of perigee:    86.3925 deg
Mean anomaly:     273.8974 deg
Mean motion:   14.10346030 rev/day
Decay rate:   -1.3000E-007 rev/day^2
Epoch rev:            8332
Checksum:              283

Satellite: HUBBLE
Catalog number: 20580
Epoch time:      100355.75257627
Element set:     442 
Inclination:       28.4649 deg
RA of node:       110.0727 deg
Eccentricity:    0.0011982
Arg of perigee:   236.5223 deg
Mean anomaly:     123.4224 deg
Mean motion:   14.92422378 rev/day
Decay rate:    4.0449E-005 rev/day^2
Epoch rev:           38429
Checksum:              294

Satellite: RESURS
Catalog number: 25394
Epoch time:      100358.00693413
Element set:     928 
Inclination:       98.7077 deg
RA of node:        71.6687 deg
Eccentricity:    0.0001081
Arg of perigee:   198.0448 deg
Mean anomaly:     162.0693 deg
Mean motion:   14.22982445 rev/day
Decay rate:    4.7399E-006 rev/day^2
Epoch rev:           12749
Checksum:              339

Satellite: UARS
Catalog number: 21701
Epoch time:      100356.20471018
Element set:     193 
Inclination:       56.9823 deg
RA of node:       338.2738 deg
Eccentricity:    0.0004704
Arg of perigee:    91.5262 deg
Mean anomaly:     268.6314 deg
Mean motion:   14.99167138 rev/day
Decay rate:    1.5609E-005 rev/day^2
Epoch rev:           50718
Checksum:              303

Frase del giorno:
Love kills time, time kills love.

Buon Natale e Felice Anno Nuovo
73 Ciao a tutti Renzo.


li, sabato 23 dicembre 2000  17.32 UTC

  /___/____/
 /    /   /
     ||
     ||I6KZR  Fermo, Italy
     ||BBS    I6KZR@I6DH.IMAR.ITA.EU
     ||e_mail i6kzr@arrl.net


Message sent with Sally V3.1. Windows packet software.


Read previous mail | Read next mail


 15.09.2025 23:13:43lGo back Go up